Temperature
7 9 8 8 7 8 8 8 8 8 6 5 6 7 7 5 4 3 3 2 2 2 2 2 3 3 3 4 4 4 4 4 4 5 5 5 5 5 6 6 6 6 6 6
9 8 6 5 6 6 7 7 8 7 5 5 5 6 6 5 4 3 3 2 2 1 2 2 3 3 3 3 3 4 4 4 4 4 4 4 5 5 5 5 5 5 5 5
9 6 4 5 6 6 6 7 7 6 5 4 4 8 7 5 3 2 2 2 2 1 1 2 2 2 2 3 3 3 3 3 3 3 4 4 4 4 4 4 4 5 5 5
6 4 4 5 5 6 7 5 5 5 6 7 5 8 8 5 4 4 3 2 1 1 1 1 1 2 2 2 3 3 3 3 3 3 3 3 3 3 4 4 4 4 4 4
5 4 4 5 5 4 5 4 4 4 5 5 5 6 9 5 5 4 3 2 1 0 0 1 1 1 2 2 2 2 2 2 2 2 3 3 3 3 3 3 3 3 3 3
3 2 3 3 3 3 3 3 3 3 5 6 5 6 8 6 5 4 3 1 0 0 -0 0 1 1 1 1 2 2 2 2 2 2 2 2 2 2 2 2 2 3 3 3
5 3 2 2 3 3 4 5 6 7 7 7 4 4 6 5 3 2 1 0 -0 -1 -1 -0 0 0 1 1 1 1 2 2 2 1 2 2 2 2 2 2 2 2 2 2
6 6 3 2 3 3 3 4 6 7 8 8 3 4 6 3 1 -0 -0 -1 -1 -1 -1 -1 -1 -0 -0 0 1 1 1 1 1 1 1 1 1 1 1 1 1 1 1 1
6 5 2 1 1 2 3 4 3 4 3 4 6 5 4 2 1 0 -0 -1 -1 -1 -1 -1 -1 -1 -1 -0 -0 0 0 0 1 1 1 1 1 1 1 1 1 1 1 1
4 3 2 0 1 1 2 2 3 4 5 6 7 5 6 3 2 1 0 -1 -1 -1 -2 -2 -2 -1 -1 -1 -1 -0 -0 -0 -0 0 0 0 0 0 0 0 0 1 1 1
2 2 2 1 1 2 1 1 1 3 3 5 6 6 4 2 2 1 -0 -1 -2 -2 -2 -2 -2 -2 -2 -2 -1 -1 -1 -1 -1 -0 -0 -0 -0 -0 0 -0 0 0 0 0
1 2 3 2 -1 -1 0 1 1 3 2 2 4 5 2 1 -0 -1 -1 -2 -2 -2 -2 -2 -2 -2 -2 -2 -2 -2 -1 -1 -1 -1 -1 -1 -1 -1 -1 -1 -0 -0 -0 -0
-0 1 3 3 1 -2 -1 -1 -1 -0 1 1 3 4 0 -1 -1 -2 -2 -2 -2 -2 -2 -2 -2 -2 -2 -2 -2 -2 -2 -2 -2 -2 -2 -2 -1 -1 -1 -1 -1 -1 -1 -1
-0 1 2 4 4 1 -1 -2 -2 -1 1 1 2 3 2 1 0 -1 -2 -2 -2 -3 -3 -3 -3 -3 -3 -3 -3 -3 -3 -3 -3 -3 -2 -2 -2 -2 -2 -2 -1 -1 -1 -1
-1 0 -0 -0 -0 -1 -1 -1 -2 -2 -0 1 2 1 1 1 -0 -1 -2 -3 -3 -3 -3 -3 -3 -3 -3 -3 -4 -4 -4 -3 -3 -3 -3 -3 -3 -3 -3 -2 -2 -2 -2 -2
-2 -1 -2 -1 -1 -2 -2 -1 -2 -2 -1 -1 -1 -1 -0 -1 -2 -2 -3 -3 -3 -3 -3 -4 -4 -4 -4 -4 -4 -4 -4 -4 -4 -4 -4 -4 -3 -3 -3 -3 -3 -3 -3 -3
-2 -2 -1 0 -2 -2 -0 -0 -2 -2 -3 -2 -1 -0 -1 -2 -2 -2 -3 -3 -3 -4 -4 -4 -4 -5 -5 -5 -5 -5 -5 -5 -4 -5 -4 -4 -4 -4 -4 -4 -4 -4 -4 -4
-3 -2 -2 -1 -1 0 2 -2 -2 -2 -3 -3 -2 -2 -2 -3 -3 -3 -3 -4 -4 -4 -5 -5 -5 -5 -5 -5 -5 -5 -5 -5 -5 -5 -5 -5 -5 -5 -5 -5 -5 -4 -4 -4
-3 -2 -2 -1 -0 1 1 -2 -3 -3 -2 -3 -3 -3 -3 -4 -4 -3 -3 -4 -5 -5 -5 -5 -6 -6 -6 -6 -6 -6 -6 -6 -6 -6 -6 -6 -6 -5 -5 -5 -5 -5 -5 -5
-5 -4 -2 -2 -1 0 1 -3 -4 -3 -1 -2 -4 -4 -4 -5 -2 -1 -4 -5 -5 -5 -6 -6 -6 -6 -6 -6 -6 -6 -6 -6 -6 -6 -6 -6 -6 -6 -6 -6 -6 -6 -6 -6
-5 -4 -4 -3 -2 -0 -1 -5 -4 -1 -0 -3 -4 -4 -5 -5 -4 -4 -5 -5 -6 -6 -6 -6 -6 -7 -7 -7 -7 -7 -7 -7 -7 -7 -7 -7 -7 -7 -7 -7 -7 -6 -6 -6
-3 -4 -4 -3 -3 -1 -4 -5 -3 -2 -3 -4 -4 -4 -5 -5 -5 -5 -6 -6 -6 -6 -7 -7 -7 -7 -7 -7 -7 -7 -7 -7 -7 -7 -7 -8 -7 -8 -7 -7 -7 -7 -7 -7
-4 -3 -3 -3 -1 -3 -5 -4 -4 -4 -4 -4 -5 -5 -5 -6 -6 -6 -6 -7 -7 -7 -7 -7 -7 -8 -8 -8 -8 -8 -8 -8 -8 -8 -8 -8 -8 -8 -8 -8 -8 -8 -8 -8
-5 -6 -5 -5 -4 -5 -5 -5 -4 -4 -5 -5 -5 -5 -6 -6 -6 -7 -7 -7 -7 -7 -7 -8 -8 -8 -8 -8 -8 -8 -8 -9 -9 -8 -8 -8 -8 -8 -8 -8 -8 -8 -8 -8
-4 -6 -6 -5 -5 -5 -5 -4 -4 -5 -5 -5 -5 -6 -6 -6 -7 -7 -7 -7 -8 -8 -8 -8 -8 -8 -8 -9 -9 -9 -9 -9 -9 -9 -9 -9 -9 -9 -9 -9 -9 -9 -8 -8
-6 -6 -5 -3 -4 -4 -4 -4 -4 -5 -5 -5 -6 -6 -7 -7 -7 -7 -7 -8 -8 -8 -8 -8 -9 -9 -9 -9 -9 -9 -9 -9 -9 -9 -9 -9 -9 -9 -9 -9 -9 -9 -9 -8
Wind_Speed
2 1 2 2 3 2 2 4 6 5 2 5 10 13 11 6 6 6 6 6 6 6 5 3 3 3 3 4 3 3 3 3 3 2 3 2 2 2 2 2 3 3 3 3
2 1 1 1 2 3 4 5 6 4 2 5 9 12 8 4 4 4 4 4 4 4 3 3 3 3 4 4 3 3 3 3 3 3 3 3 3 3 3 3 3 3 3 3
3 1 0 2 2 4 5 6 6 6 5 3 7 8 5 2 3 2 3 3 3 4 4 4 4 4 4 3 3 3 4 4 4 4 2 2 3 3 3 4 4 4 4 4
1 0 1 2 2 3 5 3 5 5 5 4 3 5 3 1 2 2 2 2 3 4 4 4 4 4 4 4 3 3 3 3 3 3 2 3 3 4 5 4 4 5 5 5
1 0 0 2 2 2 2 1 4 5 5 5 4 5 4 1 3 4 4 4 4 4 4 4 4 4 4 3 3 3 3 3 3 3 3 4 4 5 4 4 5 5 5 6
1 0 1 1 1 1 0 0 0 2 3 5 5 6 5 1 3 4 4 5 5 5 4 4 4 4 3 3 2 3 3 3 3 3 3 4 5 5 5 6 6 5 5 6
1 1 1 1 0 2 0 1 2 2 3 4 2 5 6 2 3 4 4 5 5 5 4 4 4 3 3 3 3 3 3 4 4 4 4 4 5 6 6 6 7 6 6 6
3 3 1 0 0 1 2 2 2 4 5 4 2 6 3 2 3 4 4 5 5 5 5 5 4 4 4 3 3 3 3 5 5 5 5 5 6 5 5 6 6 7 6 7
3 3 1 1 1 1 2 2 1 1 2 5 5 5 5 3 4 4 4 4 5 6 6 6 5 4 4 4 4 4 4 5 5 6 6 6 6 6 6 7 7 7 7 7
2 3 1 0 1 1 1 3 3 3 3 6 6 5 3 2 3 4 4 5 6 6 6 7 6 5 5 5 5 5 5 6 6 6 6 6 7 7 7 7 8 8 8 8
2 3 1 2 4 4 3 3 3 3 3 5 6 4 0 3 3 4 5 5 6 7 7 7 7 6 5 5 5 6 6 6 7 7 7 7 7 7 7 7 8 8 8 8
2 2 3 3 1 2 3 4 5 4 4 4 6 6 2 2 3 3 5 6 7 7 7 7 7 7 6 6 7 7 7 7 7 7 7 7 7 7 7 8 8 7 7 7
4 3 3 2 2 2 3 3 4 3 2 5 6 6 2 2 4 5 7 7 7 7 7 7 7 7 7 7 8 8 8 8 7 7 7 8 7 7 8 8 8 7 7 7
3 4 7 8 5 2 5 6 6 6 6 8 11 12 8 8 8 8 8 8 8 7 7 7 7 7 8 8 8 8 8 8 8 7 8 8 8 8 8 8 7 7 7 7
3 5 6 9 8 5 8 10 10 12 11 11 11 12 13 10 9 9 8 8 8 8 8 8 8 8 8 8 8 8 8 8 8 8 8 9 8 8 8 8 7 7 7 7
3 4 3 6 5 5 9 12 13 14 13 15 15 15 12 9 8 8 8 7 8 8 9 9 9 9 9 9 9 8 8 8 8 8 9 9 8 8 8 8 7 7 7 7
4 4 3 6 3 5 9 10 12 8 9 9 12 10 6 7 8 9 8 8 9 9 9 9 9 9 9 9 9 9 9 9 8 8 9 9 8 8 8 7 7 7 7 7
5 5 3 4 3 8 3 2 5 8 8 10 9 9 8 9 10 9 7 7 8 9 9 9 9 9 9 9 9 8 8 8 8 8 9 8 8 8 8 8 7 7 7 7
4 5 3 3 5 9 5 2 4 6 7 8 10 10 8 8 8 6 4 5 7 8 8 8 8 8 8 8 8 8 8 8 8 9 9 9 8 8 8 8 8 8 7 7
1 3 4 4 5 7 2 2 2 3 6 3 6 8 6 4 6 6 3 6 8 8 7 7 7 8 8 8 8 8 8 8 8 9 9 9 8 8 8 8 8 7 7 7
3 4 7 8 8 8 2 3 4 4 3 1 4 5 4 5 6 7 7 8 7 7 7 7 7 7 7 8 7 8 8 9 9 9 9 9 8 8 8 8 7 7 7 7
7 6 7 6 7 7 4 6 6 4 2 2 3 4 5 7 7 7 8 7 7 7 7 7 7 7 7 7 7 8 9 9 9 9 9 9 8 7 7 7 7 7 7 7
7 6 5 8 7 1 7 6 4 2 3 4 4 5 5 6 7 7 7 7 7 7 7 7 7 8 8 7 7 8 9 9 9 8 8 8 8 7 7 7 7 7 6 6
5 3 4 6 8 7 7 7 6 6 6 7 6 6 6 7 7 7 7 7 7 7 7 6 7 7 8 8 8 8 9 8 8 8 8 7 7 7 7 6 6 6 6 6
4 5 5 7 7 6 7 8 9 8 7 6 6 5 6 6 7 7 7 7 7 7 6 6 7 7 9 9 9 8 8 7 8 8 7 7 7 7 7 6 6 7 6 7
5 6 6 8 6 5 6 5 5 6 6 5 5 5 5 6 6 6 6 6 6 7 7 7 7 8 8 9 9 9 7 7 7 7 7 6 6 6 6 6 7 8 8 9
Wind_Direction
42 123 189 210 219 253 239 245 265 282 312 279 269 275 276 275 264 267 268 269 268 267 271 276 284 284 289 293 287 287 294 303 307 291 270 258 248 259 255 263 257 248 257 262
153 208 246 250 221 221 232 253 268 281 303 287 288 281 275 259 249 259 263 264 261 269 281 288 287 287 289 285 290 292 293 294 296 290 274 260 263 252 254 261 256 248 252 259
190 83 227 210 220 234 238 249 265 283 307 263 298 271 237 235 230 263 272 280 278 272 276 279 278 281 283 281 286 285 291 295 296 290 281 271 254 252 253 256 255 255 254 255
148 235 221 228 246 255 255 251 265 275 286 276 298 282 243 245 269 288 296 306 310 298 292 288 287 287 284 279 284 283 286 290 288 285 276 261 257 260 263 261 260 260 256 255
159 128 251 252 287 271 285 311 265 261 255 268 239 260 274 335 284 298 309 318 320 318 304 296 291 281 277 280 287 285 284 291 292 287 280 270 266 263 268 265 260 255 252 250
87 46 327 312 328 237 192 282 207 198 227 250 230 239 275 257 283 306 324 333 335 333 328 310 304 288 280 282 287 286 280 286 287 287 279 270 272 274 272 272 262 255 252 248
262 173 63 350 258 165 260 275 294 265 235 249 155 238 260 304 314 308 312 325 334 336 331 323 320 304 287 286 290 286 285 287 288 286 278 278 277 275 268 269 264 256 254 252
260 251 164 17 271 241 223 231 237 267 274 282 216 244 261 348 326 313 308 315 330 339 337 331 319 310 303 304 305 299 294 292 294 290 287 283 279 276 274 266 264 257 255 254
245 256 88 53 354 250 190 203 308 260 280 270 255 267 282 306 316 324 322 329 333 336 335 330 322 314 310 307 301 296 293 296 302 301 299 288 280 275 276 275 262 260 256 257
239 258 240 248 190 44 334 161 175 209 255 267 269 264 269 290 306 329 329 325 328 332 330 328 324 317 314 308 306 304 299 301 302 302 300 294 288 283 280 279 265 259 260 257
223 230 242 212 213 218 170 177 211 218 250 259 276 273 187 242 273 295 307 316 321 322 323 324 325 321 318 315 311 309 306 304 304 305 300 294 290 290 288 283 272 262 260 255
190 221 253 238 83 338 228 217 199 225 234 237 266 276 64 267 290 296 309 317 319 318 318 319 319 323 324 323 322 315 308 305 304 301 297 293 293 295 292 288 282 273 263 258
167 190 270 242 194 182 228 228 225 233 233 230 244 265 72 322 314 311 311 313 315 315 316 318 319 321 321 321 319 315 311 307 305 301 298 297 298 297 293 291 288 280 270 263
182 215 234 257 286 208 231 229 217 210 230 243 244 265 283 295 304 312 313 310 311 313 313 316 317 316 316 316 315 313 311 310 309 305 300 298 298 296 292 290 287 280 274 267
195 237 241 261 272 260 253 244 222 219 232 244 258 262 277 290 299 303 307 309 311 312 314 314 313 314 315 314 312 311 310 312 311 306 301 301 301 297 293 292 290 283 276 271
201 234 243 262 249 254 264 252 235 232 238 246 261 271 280 285 296 301 303 304 303 305 309 311 312 312 313 311 310 309 308 310 309 305 304 306 303 299 297 297 296 291 282 276
190 197 229 260 273 285 262 241 216 212 218 223 240 260 299 296 291 295 300 302 300 302 307 309 310 309 309 309 309 307 306 308 307 305 304 304 302 301 299 299 298 294 290 282
186 192 224 269 276 251 259 90 195 213 233 225 245 269 282 287 294 289 287 292 297 302 306 307 307 308 309 308 307 305 305 305 305 304 303 304 302 301 302 300 296 293 290 284
209 198 214 233 256 269 276 205 187 213 257 229 239 263 285 305 301 279 273 288 293 299 301 302 303 304 306 308 308 307 306 307 306 305 305 306 304 301 299 297 296 294 291 287
146 209 217 216 243 255 275 128 168 190 261 219 226 256 281 305 294 306 331 310 305 307 307 308 309 308 307 309 310 306 305 306 306 306 306 305 303 298 295 294 294 293 290 287
175 196 215 225 240 261 276 148 159 212 275 337 231 249 252 254 275 307 311 307 307 307 310 312 310 307 307 310 309 304 305 304 305 305 304 303 301 297 293 293 294 295 293 291
187 189 202 204 224 250 151 153 196 250 336 277 263 257 256 269 286 296 301 303 307 308 311 313 311 309 310 312 307 302 302 305 307 306 304 303 302 299 296 295 296 295 292 289
211 208 204 206 225 285 170 200 234 288 276 278 278 269 261 273 280 290 295 298 301 304 307 309 308 308 311 311 305 299 302 308 307 306 304 304 304 302 300 297 296 295 291 286
230 223 223 244 258 260 240 245 256 257 264 278 277 270 260 266 276 286 291 294 297 300 302 305 306 307 309 311 307 302 304 306 303 303 305 305 305 304 303 298 294 291 289 286
228 193 222 252 271 287 259 246 258 266 270 273 276 268 258 261 272 279 286 291 293 297 299 299 298 299 303 308 308 308 307 305 302 301 303 304 303 302 302 299 295 292 285 285
212 207 215 248 250 246 271 276 272 259 259 260 267 276 272 260 266 277 282 285 290 294 298 298 298 300 304 307 308 310 308 302 298 301 302 302 302 301 300 301 299 296 293 298
Height
1526 1526 1525 1527 1529 1527 1526 1525 1523 1524 1530 1529 1522 1517 1516 1518 1519 1518 1518 1517 1516 1515 1515 1515 1514 1514 1513 1513 1513 1513 1513 1513 1513 1513 1513 1513 1513 1514 1515 1515 1516 1517 1518 1518
1525 1527 1531 1532 1532 1530 1528 1526 1523 1525 1531 1529 1522 1515 1513 1515 1516 1516 1515 1514 1513 1512 1512 1511 1511 1510 1510 1510 1509 1510 1510 1510 1510 1510 1510 1510 1510 1511 1511 1512 1512 1513 1514 1514
1523 1531 1533 1532 1530 1528 1527 1525 1524 1525 1528 1528 1525 1507 1507 1511 1514 1514 1513 1512 1511 1510 1509 1509 1508 1508 1507 1507 1507 1507 1507 1507 1507 1507 1507 1507 1507 1507 1508 1508 1508 1509 1509 1510
1529 1533 1533 1531 1529 1528 1524 1529 1529 1529 1525 1517 1524 1504 1500 1508 1510 1510 1510 1510 1509 1509 1508 1506 1505 1504 1504 1504 1504 1504 1504 1504 1504 1504 1503 1503 1502 1502 1503 1504 1503 1504 1505 1506
1529 1533 1532 1530 1531 1531 1528 1532 1531 1529 1526 1522 1520 1516 1496 1506 1505 1506 1508 1508 1508 1507 1506 1504 1503 1503 1502 1502 1502 1502 1502 1501 1501 1501 1500 1500 1499 1499 1499 1499 1499 1500 1500 1501
1534 1536 1535 1533 1534 1533 1533 1531 1530 1529 1524 1515 1515 1513 1495 1502 1506 1506 1508 1508 1507 1505 1504 1502 1501 1500 1500 1499 1499 1499 1499 1499 1498 1498 1497 1496 1496 1495 1495 1495 1495 1495 1496 1496
1530 1534 1536 1536 1532 1533 1531 1525 1516 1512 1509 1502 1520 1517 1502 1505 1509 1509 1509 1508 1506 1505 1503 1501 1499 1498 1497 1496 1496 1495 1495 1495 1495 1494 1494 1493 1492 1491 1491 1491 1490 1490 1491 1491
1524 1523 1534 1535 1533 1531 1531 1527 1519 1512 1502 1498 1519 1510 1501 1509 1510 1509 1509 1507 1505 1503 1502 1500 1498 1497 1495 1494 1493 1492 1492 1491 1491 1490 1489 1489 1488 1487 1487 1486 1486 1486 1486 1486
1523 1524 1536 1537 1537 1534 1530 1528 1532 1526 1528 1519 1502 1505 1505 1506 1507 1507 1507 1505 1504 1502 1501 1499 1497 1496 1494 1492 1491 1490 1489 1488 1487 1486 1485 1484 1483 1483 1482 1482 1482 1481 1481 1481
1530 1530 1534 1538 1538 1538 1535 1533 1532 1526 1517 1502 1494 1499 1496 1503 1504 1506 1506 1506 1504 1502 1500 1498 1496 1494 1492 1490 1489 1488 1486 1485 1484 1482 1480 1479 1479 1478 1477 1477 1476 1476 1476 1476
1534 1532 1533 1535 1535 1531 1536 1537 1532 1526 1524 1510 1498 1493 1502 1504 1505 1506 1506 1505 1504 1502 1500 1497 1495 1492 1490 1489 1487 1485 1484 1482 1480 1478 1477 1476 1475 1473 1472 1471 1471 1470 1470 1470
1534 1531 1527 1530 1537 1538 1535 1532 1531 1524 1522 1524 1510 1500 1505 1505 1505 1506 1505 1504 1503 1501 1499 1496 1494 1491 1488 1487 1485 1483 1480 1478 1476 1475 1473 1472 1470 1468 1467 1466 1465 1464 1464 1464
1534 1532 1523 1518 1531 1539 1536 1535 1535 1532 1527 1522 1512 1500 1506 1506 1506 1505 1504 1503 1501 1499 1497 1495 1492 1489 1487 1484 1482 1479 1477 1475 1473 1471 1469 1467 1465 1463 1462 1461 1459 1458 1458 1458
1532 1529 1523 1512 1511 1523 1530 1533 1534 1531 1523 1515 1510 1500 1502 1503 1504 1503 1503 1501 1499 1497 1495 1493 1490 1487 1485 1482 1480 1477 1474 1472 1470 1467 1465 1463 1460 1458 1457 1456 1454 1453 1453 1452
1531 1527 1527 1524 1524 1526 1524 1524 1528 1527 1518 1513 1503 1504 1500 1501 1502 1502 1501 1499 1497 1495 1493 1491 1488 1485 1482 1479 1477 1474 1471 1468 1466 1463 1461 1457 1455 1454 1452 1450 1449 1448 1447 1447
1530 1529 1529 1525 1524 1525 1522 1517 1518 1519 1518 1513 1509 1505 1500 1501 1501 1499 1498 1496 1494 1492 1491 1488 1486 1483 1479 1476 1473 1470 1467 1464 1462 1459 1456 1453 1452 1450 1448 1446 1444 1442 1441 1441
1528 1529 1526 1515 1522 1522 1509 1505 1509 1511 1510 1509 1505 1500 1499 1499 1498 1497 1495 1494 1492 1490 1488 1485 1482 1480 1476 1473 1470 1466 1464 1461 1458 1455 1453 1450 1448 1445 1443 1441 1438 1437 1435 1435
1526 1526 1524 1518 1519 1509 1495 1504 1503 1504 1503 1504 1501 1499 1499 1498 1496 1494 1493 1491 1489 1487 1484 1482 1479 1476 1473 1470 1467 1464 1460 1457 1454 1451 1449 1446 1443 1440 1438 1435 1433 1432 1430 1429
1524 1523 1521 1519 1511 1498 1497 1502 1503 1503 1498 1497 1498 1496 1496 1495 1492 1489 1488 1488 1486 1484 1482 1479 1476 1473 1470 1466 1463 1459 1456 1453 1450 1447 1444 1442 1439 1436 1434 1431 1429 1428 1426 1424
1525 1524 1521 1519 1511 1498 1491 1500 1501 1502 1495 1492 1493 1493 1493 1493 1489 1485 1485 1484 1482 1480 1478 1475 1472 1469 1466 1463 1460 1456 1452 1449 1446 1443 1440 1438 1435 1432 1430 1427 1425 1423 1421 1419
1523 1523 1521 1516 1509 1496 1496 1500 1501 1497 1488 1489 1489 1490 1490 1490 1488 1486 1483 1481 1479 1476 1474 1471 1469 1466 1463 1459 1456 1452 1449 1446 1443 1440 1437 1434 1431 1428 1426 1423 1421 1418 1416 1414
1511 1513 1515 1513 1509 1497 1495 1497 1496 1489 1488 1487 1487 1486 1486 1485 1484 1482 1480 1477 1475 1473 1470 1468 1464 1461 1459 1456 1452 1449 1445 1442 1439 1436 1432 1429 1427 1424 1421 1419 1416 1414 1412 1409
1505 1502 1500 1501 1493 1490 1490 1489 1488 1488 1486 1485 1484 1483 1483 1481 1479 1478 1476 1474 1472 1469 1467 1464 1461 1458 1455 1452 1449 1445 1441 1438 1435 1431 1428 1426 1423 1420 1417 1415 1412 1410 1407 1405
1502 1502 1500 1497 1489 1488 1488 1486 1486 1485 1484 1482 1481 1480 1479 1477 1476 1474 1472 1470 1468 1466 1463 1460 1457 1454 1451 1448 1445 1441 1438 1434 1431 1428 1425 1422 1419 1416 1413 1411 1408 1405 1402 1400
1494 1498 1496 1492 1487 1485 1482 1482 1481 1481 1480 1479 1477 1476 1475 1474 1472 1471 1469 1466 1464 1462 1459 1457 1454 1450 1447 1444 1441 1437 1434 1431 1427 1424 1421 1418 1416 1413 1409 1407 1404 1401 1398 1397
1491 1491 1489 1482 1481 1481 1479 1478 1477 1476 1475 1474 1473 1472 1471 1470 1469 1467 1465 1463 1461 1458 1456 1453 1450 1447 1443 1440 1437 1433 1430 1427 1424 1421 1418 1415 1412 1409 1406 1403 1400 1397 1395 1393